This is the latest recevied weather packets stored in our database for station/object WY7EM. If no packets are shown the sender has not sent any weather packets the latest 10 day(s).
| Time | Temp. | Humidity | Pressure | Rain* | Wind** | Luminosity | Snow |
|---|---|---|---|---|---|---|---|
| 1777651863 | 17.22° C | 27% | 1017.2 hPa | 0 mm | - | 516 W/m² | - |
| 1777651560 | 16.67° C | 27% | 1017.3 hPa | 0 mm | - | 500 W/m² | - |
| 1777651256 | 16.67° C | 27% | 1017.1 hPa | 0 mm | - | 484 W/m² | - |
| 1777650953 | 17.22° C | 26% | 1017.2 hPa | 0 mm | - | 468 W/m² | - |
| 1777650651 | 16.11° C | 27% | 1017.2 hPa | 0 mm | - | 453 W/m² | - |
| 1777650347 | 15.56° C | 29% | 1017.3 hPa | 0 mm | - | 436 W/m² | - |
| 1777650044 | 16.11° C | 28% | 1017.1 hPa | 0 mm | - | 419 W/m² | - |
| 1777649742 | 15.56° C | 28% | 1017 hPa | 0 mm | - | 402 W/m² | - |
| 1777649439 | 15.56° C | 30% | 1017 hPa | 0 mm | - | 383 W/m² | - |
| 1777649135 | 15.56° C | 30% | 1016.9 hPa | 0 mm | - | 364 W/m² | - |
| 1777648833 | 15.56° C | 31% | 1017 hPa | 0 mm | - | 345 W/m² | - |
| 1777648529 | 15.56° C | 31% | 1016.9 hPa | 0 mm | - | 325 W/m² | - |
| 1777648226 | 15.56° C | 31% | 1017.1 hPa | 0 mm | - | 305 W/m² | - |
| 1777647921 | 15° C | 31% | 1017.1 hPa | 0 mm | - | 285 W/m² | - |
| 1777647619 | 15° C | 31% | 1017.1 hPa | 0 mm | - | 266 W/m² | - |
| 1777647315 | 15° C | 32% | 1017.1 hPa | 0 mm | - | 249 W/m² | - |
| 1777647013 | 15° C | 32% | 1016.9 hPa | 0 mm | - | 231 W/m² | - |
| 1777646709 | 15° C | 32% | 1016.9 hPa | 0 mm | - | 214 W/m² | - |
| 1777646404 | 14.44° C | 34% | 1016.9 hPa | 0 mm | - | 199 W/m² | - |
| 1777646101 | 13.89° C | 34% | 1016.9 hPa | 0 mm | - | 183 W/m² | - |
| 1777645797 | 13.89° C | 34% | 1016.9 hPa | 0 mm | - | 46 W/m² | - |
| 1777645495 | 13.89° C | 34% | 1016.8 hPa | 0 mm | - | 67 W/m² | - |
| 1777645190 | 13.89° C | 35% | 1017 hPa | 0 mm | - | 49 W/m² | - |
| 1777644886 | 13.89° C | 34% | 1017 hPa | 0 mm | - | 44 W/m² | - |
| 1777644585 | 13.33° C | 35% | 1016.6 hPa | 0 mm | - | 47 W/m² | - |
* Rain latest hour (hover to see other rain measurements)
** Current wind speed in m/s (hover to see current wind gust speed)